PAGEOS 1 DEB, 9468

Orbit data source: Space-Track

PAGEOS 1 DEB, 9468 is space debris in LEO originally from a launch on Fri, 24 Jun 1966 UTC launched from the Air Force Western Test Range (AFWTR). Debris objects in space refer to the collection of defunct objects orbiting the Earth. Examples of debris include non-operational satellites, rocket bodies, and fragments generated from explosions, collisions, or faulty payload assembly.

Loading next visibility...
Identifier
9468, 1966-056AH
Orbit
LEO
Country
Flag of USUS
Related business
Manufacturer
Unknown
Mission
Spacecraft
Bus & Motor
Unknown
Mass
Unknown
Launch date (UTC)
1966-06-24 (60 years ago)
Launch vehicle
Unknown
Launch site
Air Force Western Test Range (AFWTR)
Object type
Payload
Rocket body
Debris
Shape & HBR
Unknown shape, 0.2 m
Radar Cross Section
Medium (>0.1 m² and <1 m²)

Expand to show TLE details & history
Last TLE update: 4 months ago

TLE from 4 months ago
0 PAGEOS 1 DEB
1 09468U 66056AH  26151.85217391  .00001390  00000-0  10300+1 0  9998
2 09468  85.5906 108.9526 0610461 319.3199  36.3508  8.04548365 64475
Epoch: 2026-05-31T20:27Z
TLE epoch observation values (Epoch: 2026-05-31T20:27:07.825Z)
Latitude
-0.00004°
Longitude
-87.17791°
Altitude
3,641.931 km
Speed
6.457 km/s
True Right ascension
07h 15m 48s
True Declination
0° 00' 00"
Sunlit
Object was in daylight at epoch
Visualization orbit readout
Latitude
Unknown
Longitude
Unknown
Altitude
Unknown
Speed
Unknown
Apparent Right ascension
Unknown
Apparent Declination
Unknown
Sunlit
N/A
Visualization observer readout
Local Sidereal Time
09:08:57
Azimuth
Unknown
Elevation
Unknown
Doppler factor
Unknown
Orbital elements
Apogee altitude
4,782.344 km
Perigee altitude
3,498.132 km
Semi-major axis
10,518.375 km
Eccentricity
0.06105
Inclination
85.5906°
RAAN
108.9526°
Arg. of periapsis
319.3199°
True anomaly
40.76349°
Mean anomaly
36.3508°
Eccentric anomaly
38.52957°
Mean motion
2.01196 °/min
Orbital period
178.93 mins
BSTAR
1.03
Loading maneuver chart data...
Computing Atmospheric mass density...

Documentation

Showing up to 5 results
|